EW4258 Weather Reports


time (UTC)temp
C
wind
direction
speed
KPH
gust
KPH
rain 1hr
cm
rain 24hr
cm
rain mn
cm
humidity
%
barometer
mb
20260507060113 11 135 1.6 4.8 0.00 0.00 0.00 55 1012.6
20260507055113 11 135 1.6 4.8 0.00 0.00 0.00 54 1012.6
20260507054113 11 67 1.6 4.8 0.00 0.00 0.00 55 1012.4
20260507053113 11 157 1.6 0.0 0.00 0.00 0.00 57 1012.4
20260507052112 10 202 0.0 1.6 0.00 0.00 0.00 57 1012.5
20260507051112 10 157 0.0 3.2 0.00 0.00 0.00 57 1012.5
20260507050112 10 135 0.0 0.0 0.00 0.00 0.00 57 1012.2
20260507045112 10 112 0.0 3.2 0.00 0.00 0.00 57 1012.2
20260507044112 10 180 0.0 0.0 0.00 0.00 0.00 58 1012.1
20260507042112 10 180 0.0 0.0 0.00 0.00 0.00 58 1011.8
20260507041113 10 112 0.0 0.0 0.00 0.00 0.00 58 1011.8
20260507035112 10 112 1.6 1.6 0.00 0.00 0.00 56 1012.1
20260507034113 10 225 0.0 0.0 0.00 0.00 0.00 56 1011.7
20260507033113 10 247 0.0 0.0 0.00 0.00 0.00 57 1011.7
20260507032113 10 225 0.0 0.0 0.00 0.00 0.00 56 1011.6
20260507031113 10 202 0.0 1.6 0.00 0.00 0.00 54 1011.6
20260507030113 10 135 0.0 0.0 0.00 0.00 0.00 54 1011.5
20260507025113 11 202 0.0 0.0 0.00 0.00 0.00 54 1011.5
20260507024113 11 270 1.6 0.0 0.00 0.00 0.00 55 1011.5
20260507023113 11 202 0.0 0.0 0.00 0.00 0.00 54 1011.5
20260507021112 11 90 0.0 3.2 0.00 0.00 0.00 52 1011.4
20260507020112 11 202 0.0 0.0 0.00 0.00 0.00 52 1011.8
20260507015112 11 225 0.0 0.0 0.00 0.00 0.00 52 1011.8
20260507014112 11 202 0.0 0.0 0.00 0.00 0.00 51 1011.1
20260507013112 11 225 1.6 3.2 0.00 0.00 0.00 51 1011.1
20260507012113 11 90 0.0 0.0 0.00 0.00 0.00 51 1011.1
20260507011112 11 45 0.0 0.0 0.00 0.00 0.00 51 1011.1
20260507005112 11 292 1.6 1.6 0.00 0.00 0.00 51 1011.0
20260507003111 11 337 1.6 3.2 0.00 0.00 0.00 50 1011.0
20260507001112 11 90 1.6 0.0 0.00 0.00 0.00 49 1011.4
20260507000111 12 292 1.6 3.2 0.00 0.00 0.00 50 1010.9
20260506235111 12 292 3.2 1.6 0.00 0.00 0.00 49 1010.9
20260506234111 12 360 3.2 4.8 0.00 0.00 0.00 49 1010.9
20260506232112 12 315 3.2 9.7 0.00 0.00 0.00 49 1010.9
20260506231111 12 292 3.2 6.4 0.00 0.00 0.00 49 1010.9
20260506230111 12 292 4.8 4.8 0.00 0.00 0.00 49 1010.9
20260506225111 12 247 4.8 9.7 0.00 0.00 0.00 50 1010.9
20260506224112 12 360 6.4 6.4 0.00 0.00 0.00 50 1010.6
20260506223111 12 225 6.4 8.0 0.00 0.00 0.00 50 1010.6
20260506222111 12 337 8.0 4.8 0.00 0.00 0.00 51 1010.2
20260506221111 12 270 4.8 11.3 0.00 0.00 0.00 51 1010.2
20260506220113 13 337 8.0 12.9 0.00 0.00 0.00 51 1010.1
20260506215113 13 22 6.4 9.7 0.00 0.00 0.00 51 1010.1
20260506214113 13 292 6.4 4.8 0.00 0.00 0.00 52 1009.9
20260506213113 13 315 6.4 6.4 0.00 0.00 0.00 52 1009.9
20260506211113 13 315 4.8 12.9 0.00 0.00 0.00 51 1009.6
20260506210114 13 90 4.8 6.4 0.00 0.00 0.00 50 1009.2
20260506205113 14 247 6.4 4.8 0.00 0.00 0.00 49 1009.2
20260506204113 14 315 6.4 9.7 0.00 0.00 0.00 48 1009.2
20260506203114 14 270 4.8 6.4 0.00 0.00 0.00 46 1009.2
20260506202113 15 292 6.4 8.0 0.00 0.00 0.00 46 1009.1
20260506201112 15 247 6.4 4.8 0.00 0.00 0.00 45 1009.1
20260506200112 15 315 6.4 9.7 0.00 0.00 0.00 44 1008.8
20260506195112 15 315 6.4 11.3 0.00 0.00 0.00 43 1008.8
20260506194112 16 270 4.8 4.8 0.00 0.00 0.00 42 1008.4
20260506193112 16 337 6.4 11.3 0.00 0.00 0.00 42 1008.4
20260506191112 16 315 6.4 4.8 0.00 0.00 0.00 41 1007.9
20260506190112 17 225 8.0 9.7 0.00 0.00 0.00 39 1007.2
20260506185113 17 337 8.0 17.7 0.00 0.00 0.00 38 1007.2
20260506184112 17 337 6.4 8.0 0.00 0.00 0.00 37 1006.8
20260506183112 18 360 6.4 3.2 0.00 0.00 0.00 35 1006.8
20260506182111 18 247 6.4 9.7 0.00 0.00 0.00 33 1006.1
20260506181111 18 270 4.8 4.8 0.00 0.00 0.00 32 1006.1
20260506180111 19 315 3.2 3.2 0.00 0.00 0.00 31 1005.9
20260506175111 19 225 3.2 3.2 0.00 0.00 0.00 31 1005.9
20260506174111 19 225 4.8 6.4 0.00 0.00 0.00 31 1006.1
20260506173111 20 202 3.2 3.2 0.00 0.00 0.00 31 1006.1
20260506172111 20 157 3.2 3.2 0.00 0.00 0.00 31 1005.1
20260506171111 20 112 6.4 3.2 0.00 0.00 0.00 31 1005.1
20260506165111 20 135 4.8 3.2 0.00 0.00 0.00 32 1005.1
20260506164111 20 180 4.8 4.8 0.00 0.00 0.00 30 1004.9
20260506163110 20 90 4.8 6.4 0.00 0.00 0.00 31 1004.9
20260506162110 21 90 4.8 8.0 0.00 0.00 0.00 31 1005.6
20260506161110 21 135 4.8 4.8 0.00 0.00 0.00 31 1005.6
20260506155110 21 225 3.2 3.2 0.00 0.00 0.00 32 1004.8
20260506154110 21 157 3.2 4.8 0.00 0.00 0.00 32 1004.8
20260506153110 21 292 6.4 9.7 0.00 0.00 0.00 31 1004.8
20260506152110 21 90 8.0 9.7 0.00 0.00 0.00 31 1005.1
20260506151110 22 157 8.0 11.3 0.00 0.00 0.00 31 1005.1
20260506145110 22 90 9.7 19.3 0.00 0.00 0.00 31 1004.8
20260506144110 23 135 4.8 8.0 0.00 0.00 0.00 31 1005.3
20260506143110 23 180 3.2 4.8 0.00 0.00 0.00 32 1005.3
20260506142109 22 157 6.4 4.8 0.00 0.00 0.00 32 1005.2
20260506141110 22 67 6.4 8.0 0.00 0.00 0.00 32 1005.2
20260506140114 22 67 4.8 6.4 0.00 0.00 0.00 32 1005.5
20260506135114 22 157 6.4 8.0 0.00 0.00 0.00 32 1005.5
20260506133116 22 135 6.4 6.4 0.00 0.00 0.00 33 1006.0
20260506132114 22 67 9.7 9.7 0.00 0.00 0.00 32 1005.5
20260506131114 23 112 9.7 11.3 0.00 0.00 0.00 33 1005.5
20260506130114 23 112 9.7 16.1 0.00 0.00 0.00 32 1005.6
20260506125114 22 90 9.7 9.7 0.00 0.00 0.00 33 1005.6
20260506124114 22 180 9.7 14.5 0.00 0.00 0.00 33 1006.1
20260506123114 22 135 9.7 4.8 0.00 0.00 0.00 34 1006.1
20260506121114 22 112 8.0 12.9 0.00 0.00 0.00 34 1005.8
20260506114113 22 112 9.7 12.9 0.00 0.00 0.00 34 1006.8
20260506113114 22 157 8.0 11.3 0.00 0.00 0.00 35 1006.8
20260506112114 22 90 6.4 9.7 0.00 0.00 0.00 34 1007.0
20260506111113 21 90 3.2 8.0 0.00 0.00 0.00 36 1007.0
20260506104113 20 135 4.8 8.0 0.00 0.00 0.00 37 1007.4
20260506103113 21 225 4.8 4.8 0.00 0.00 0.00 38 1007.4
20260506102113 20 225 4.8 8.0 0.00 0.00 0.00 38 1007.4
20260506100113 20 292 3.2 4.8 0.00 0.00 0.00 40 1007.4
20260506095114 19 202 3.2 3.2 0.00 0.00 0.00 44 1007.4
20260506094113 18 202 3.2 8.0 0.00 0.00 0.00 44 1007.7
20260506092113 17 247 1.6 3.2 0.00 0.00 0.00 46 1007.6
20260506091112 16 135 1.6 1.6 0.00 0.00 0.00 47 1007.6
20260506084112 15 135 1.6 3.2 0.00 0.00 0.00 48 1008.0
20260506083112 14 225 1.6 0.0 0.00 0.00 0.00 48 1008.0
20260506082112 13 112 3.2 3.2 0.00 0.00 0.00 49 1008.1
20260506080112 13 157 3.2 3.2 0.00 0.00 0.00 49 1008.3
20260506073112 13 112 1.6 3.2 0.00 0.00 0.00 50 1008.6
20260506072112 12 180 0.0 3.2 0.00 0.00 0.00 52 1009.4
20260506071112 12 225 0.0 0.0 0.00 0.00 0.00 51 1009.4
20260506070112 12 180 0.0 0.0 0.00 0.00 0.00 51 1009.2
20260506062111 8 135 0.0 0.0 0.00 0.00 0.00 59 1010.1
20260506061111 8 45 1.6 0.0 0.00 0.00 0.00 59 1010.1